Location: Central Coast
(33.3208°S, 151.2336°E)
Time: 18:52:57
(UTC+11:00)

N. Korean satellite - Pass Details

Date: 08 October 2017
Orbit: 459 x 517 km, 97.2° (Epoch: 23 October)

Event Time Altitude Azimuth Distance (km) Brightness Sun altitude
Rises 20:39:27 0° 191° (S) 2,671 10.8 -20.4°
Reaches altitude 10° 20:42:17 10° 214° (SSW) 1,774 10.2 -20.9°
Maximum altitude 20:44:32 15° 250° (WSW) 1,465 10.0 -21.3°
Drops below altitude 10° 20:46:46 10° 286° (WNW) 1,756 10.1 -21.8°
Sets 20:49:33 0° 309° (NW) 2,628 10.7 -22.3°
